CKS218 KLAX-KLAS

Flight info

Callsign CKS218
Flight time N/A
Altitude 21000
Route ORCKA5 MISEN RNDRZ4
Aircraft B744/H-VGDW/C

Departure

Time 2026-04-26 20:59
Airport Los Angeles International Airport (KLAX)

Arrival

Time N/A
Airport Harry Reid International Airport (KLAS)
Time Latitude Longitude Altitude Speed Heading
2026-04-26 20:33 33.93405 -118.38985 111 ft 0 kts 180°
2026-04-26 20:46 33.93419 -118.38985 111 ft 2 kts 180°
2026-04-26 20:47 33.93434 -118.38985 111 ft 2 kts 180°
2026-04-26 20:47 33.93444 -118.38985 111 ft 2 kts 180°
2026-04-26 20:47 33.93459 -118.38985 111 ft 2 kts 176°
2026-04-26 20:47 33.93473 -118.38988 111 ft 2 kts 162°
2026-04-26 20:48 33.93487 -118.38995 111 ft 2 kts 152°
2026-04-26 20:48 33.93500 -118.39004 111 ft 2 kts 141°
2026-04-26 20:48 33.93511 -118.39016 111 ft 2 kts 130°
2026-04-26 20:48 33.93520 -118.39030 111 ft 2 kts 120°
2026-04-26 20:49 33.93527 -118.39047 111 ft 2 kts 110°
2026-04-26 20:49 33.93530 -118.39064 111 ft 2 kts 99°
2026-04-26 20:49 33.93531 -118.39082 111 ft 2 kts 88°
2026-04-26 20:49 33.93531 -118.39092 111 ft 1 kts 82°
2026-04-26 20:50 33.93531 -118.39094 111 ft 0 kts 82°
2026-04-26 20:52 33.93531 -118.39088 111 ft 2 kts 82°
2026-04-26 20:53 33.93540 -118.39011 110 ft 16 kts 84°
2026-04-26 20:53 33.93558 -118.38810 108 ft 3 kts 82°
2026-04-26 20:53 33.93570 -118.38675 108 ft 14 kts 83°
2026-04-26 20:53 33.93594 -118.38494 108 ft 27 kts 82°
2026-04-26 20:54 33.93606 -118.38381 105 ft 7 kts 81°
2026-04-26 20:54 33.93619 -118.38326 104 ft 0 kts 63°
2026-04-26 20:58 33.93633 -118.38302 104 ft 10 kts 43°
2026-04-26 20:58 33.93724 -118.38313 104 ft 13 kts 297°
2026-04-26 20:58 33.93713 -118.38518 108 ft 45 kts 263°
2026-04-26 20:59 33.93645 -118.39185 111 ft 114 kts 262°
2026-04-26 20:59 33.93506 -118.40370 128 ft 167 kts 265°
2026-04-26 20:59 33.93379 -118.41907 346 ft 194 kts 261°
2026-04-26 20:59 33.93195 -118.43552 895 ft 205 kts 261°
2026-04-26 21:00 33.92887 -118.45262 1462 ft 216 kts 252°
2026-04-26 21:00 33.92325 -118.47019 1776 ft 228 kts 248°
2026-04-26 21:00 33.91691 -118.48779 2355 ft 230 kts 248°
2026-04-26 21:00 33.91053 -118.50546 2757 ft 242 kts 249°
2026-04-26 21:01 33.90401 -118.52393 3491 ft 238 kts 249°
2026-04-26 21:01 33.89742 -118.54232 4116 ft 241 kts 248°
2026-04-26 21:01 33.89067 -118.56074 4678 ft 245 kts 248°
2026-04-26 21:01 33.88354 -118.57978 5213 ft 251 kts 248°
2026-04-26 21:02 33.87621 -118.59906 5704 ft 258 kts 246°
2026-04-26 21:02 33.86568 -118.61702 6142 ft 269 kts 226°
2026-04-26 21:02 33.84983 -118.62991 6686 ft 278 kts 206°
2026-04-26 21:02 33.83086 -118.63553 7288 ft 284 kts 187°
2026-04-26 21:03 33.81102 -118.63319 7856 ft 292 kts 167°
2026-04-26 21:03 33.79221 -118.62282 8416 ft 300 kts 148°
2026-04-26 21:03 33.77702 -118.60561 8951 ft 306 kts 128°
2026-04-26 21:03 33.76685 -118.58302 9458 ft 311 kts 109°
2026-04-26 21:04 33.76297 -118.55718 9939 ft 314 kts 89°
2026-04-26 21:04 33.76594 -118.53140 10407 ft 315 kts 69°
2026-04-26 21:04 33.77539 -118.50790 10844 ft 314 kts 50°
2026-04-26 21:04 33.79056 -118.48894 11236 ft 313 kts 31°
2026-04-26 21:05 33.80983 -118.47666 11558 ft 313 kts 13°
2026-04-26 21:05 33.83120 -118.46995 11805 ft 322 kts
2026-04-26 21:05 33.85345 -118.46317 12210 ft 329 kts 11°
2026-04-26 21:05 33.87550 -118.45602 12768 ft 330 kts 10°
2026-04-26 21:06 33.89774 -118.44895 13299 ft 332 kts 10°
2026-04-26 21:06 33.92027 -118.44170 13829 ft 333 kts 10°
2026-04-26 21:06 33.94297 -118.43440 14303 ft 337 kts 13°
2026-04-26 21:06 33.96443 -118.42241 14749 ft 347 kts 30°
2026-04-26 21:07 33.98270 -118.40250 15195 ft 357 kts 49°
2026-04-26 21:07 33.99503 -118.37632 15605 ft 365 kts 67°
2026-04-26 21:07 34.00165 -118.34686 15967 ft 365 kts 76°
2026-04-26 21:07 34.00627 -118.31677 16287 ft 367 kts 77°
2026-04-26 21:08 34.01102 -118.28635 16677 ft 369 kts 74°
2026-04-26 21:08 34.02079 -118.25847 17064 ft 362 kts 53°
2026-04-26 21:08 34.03621 -118.23374 17303 ft 364 kts 44°
2026-04-26 21:08 34.05277 -118.21119 17922 ft 358 kts 50°
2026-04-26 21:09 34.06837 -118.18775 18299 ft 360 kts 45°
2026-04-26 21:09 34.08435 -118.16444 18520 ft 367 kts 51°
2026-04-26 21:09 34.09920 -118.13863 18638 ft 378 kts 52°
2026-04-26 21:09 34.11461 -118.11193 18865 ft 384 kts 52°
2026-04-26 21:10 34.12998 -118.08529 19203 ft 385 kts 53°
2026-04-26 21:10 34.14488 -118.05878 19259 ft 381 kts 53°
2026-04-26 21:10 34.15962 -118.03267 19136 ft 370 kts 52°
2026-04-26 21:10 34.17426 -118.00678 19057 ft 376 kts 52°
2026-04-26 21:11 34.18899 -117.98061 19030 ft 379 kts 52°
2026-04-26 21:11 34.20393 -117.95410 19017 ft 380 kts 52°
2026-04-26 21:11 34.21886 -117.92760 19007 ft 379 kts 53°
2026-04-26 21:11 34.23365 -117.90126 19006 ft 381 kts 53°
2026-04-26 21:12 34.24861 -117.87462 19014 ft 381 kts 52°
2026-04-26 21:12 34.26347 -117.84811 19008 ft 381 kts 52°
2026-04-26 21:12 34.27844 -117.82161 18995 ft 379 kts 52°
2026-04-26 21:12 34.29327 -117.79517 18983 ft 381 kts 52°
2026-04-26 21:13 34.30818 -117.76849 18995 ft 382 kts 52°
2026-04-26 21:13 34.32311 -117.74168 18999 ft 381 kts 52°
2026-04-26 21:13 34.33775 -117.71528 18997 ft 380 kts 53°
2026-04-26 21:13 34.35238 -117.68853 19028 ft 379 kts 52°
2026-04-26 21:14 34.36787 -117.66258 19011 ft 379 kts 49°
2026-04-26 21:14 34.38359 -117.63683 18986 ft 380 kts 50°
2026-04-26 21:14 34.39913 -117.61088 18978 ft 380 kts 50°
2026-04-26 21:14 34.41453 -117.58525 18961 ft 380 kts 50°
2026-04-26 21:15 34.43010 -117.55931 18947 ft 379 kts 51°
2026-04-26 21:15 34.44554 -117.53342 18928 ft 380 kts 50°
2026-04-26 21:15 34.46102 -117.50737 18908 ft 380 kts 50°
2026-04-26 21:15 34.47667 -117.48123 18894 ft 380 kts 51°
2026-04-26 21:16 34.49216 -117.45521 18894 ft 379 kts 50°
2026-04-26 21:16 34.50776 -117.42896 19004 ft 387 kts 51°
2026-04-26 21:16 34.52348 -117.40250 19387 ft 389 kts 51°
2026-04-26 21:16 34.53924 -117.37587 19783 ft 392 kts 51°
2026-04-26 21:17 34.55547 -117.34861 20185 ft 399 kts 51°
2026-04-26 21:17 34.57154 -117.32149 20778 ft 399 kts 51°
2026-04-26 21:17 34.58799 -117.29372 21106 ft 398 kts 51°
2026-04-26 21:17 34.60406 -117.26653 21005 ft 394 kts 51°
2026-04-26 21:18 34.61985 -117.23983 21185 ft 392 kts 51°
2026-04-26 21:18 34.63641 -117.21188 21216 ft 419 kts 52°